Regional Weather Roundup
Issued by NWS

Home | Current Version | Previous Version | Text Only | Print | Product List | Glossary Off
Versions: 1 2 3 4 5 6 7 8 9 10 11 12 13 14 15 16 17 18 19 20 21 22 23 24 25 26 27 28

000
ASUS45 KSLC 270010
RWRUT

UTAH REGIONAL WEATHER ROUNDUP
NATIONAL WEATHER SERVICE SALT LAKE CITY UT
600 PM MDT MON JUN 26 2017

UTZ001>011-023>025-270100-

NORTHERN UTAH

CITY           SKY/WX    TMP DP  RH WIND       PRES   REMARKS
BRIGHAM CITY   SUNNY     94  29   9 CALM      29.90F
DUGWAY         PTSUNNY   98  23   6 S7        29.86F HX  91
HILL AFB       MOSUNNY   93  33  12 S9        29.95F
LOGAN          SUNNY     94  37  13 SW7       29.92F
OGDEN          MOSUNNY   95  30  10 SE7       29.91F
SALT LAKE CITY PTSUNNY   98  29   8 SE8       29.88F HX  92
TOOELE VALLEY  PTSUNNY   91  50  24 N7        29.90F
WENDOVER         N/A     95  33  11 NW9       29.88F HX  90
HEBER CITY     MOSUNNY   90  27  10 CALM      30.03F
WEST JORDAN    MOSUNNY   94  54  25 E7        29.93F HX  92

$$

UTZ011>015-024>027-270100-

CENTRAL/NORTHEAST UTAH

CITY           SKY/WX    TMP DP  RH WIND       PRES   REMARKS
PROVO AIRPORT  MOSUNNY   96  33  11 E5        29.93F HX  91
MOAB/CANYONLAN SUNNY     99  13   4 W7        29.94F HX  91
DELTA          MOSUNNY   99  25   7 SW15      29.93F HX  92
PRICE          MOSUNNY   89  25  10 W3        30.07F
RICHFIELD        N/A     91  32  12 NE7       30.02F
VERNAL         CLOUDY    83  38  20 NW26G41   30.09R

$$

UTZ013>016-019>022-027-270100-

SOUTHERN UTAH

CITY           SKY/WX    TMP DP  RH WIND       PRES   REMARKS
BRYCE CANYON   SUNNY     84  21  10 S20G31    30.26F
CEDAR CITY     SUNNY     91  15   6 S21G38    30.08F
MILFORD        SUNNY     97  19   6 SW22G31   29.98F HX  90
ST GEORGE      PTCLDY   105  15   4 S24G33    29.84F HX  96
HANKSVILLE     MOSUNNY   97  30   9 W12       29.96F HX  91
KANAB          SUNNY     97  21   6 S18       30.07F HX  90
BLANDING       SUNNY     91  31  11 W8        30.17F

$$

REGIONAL REPORTS     COLORADO/ARIZONA

CITY           SKY/WX    TMP DP  RH WIND       PRES   REMARKS
CRAIG, CO      SUNNY     89  21   8 W6        30.12F
GRAND JUNCTION SUNNY     97  19   6 N13G18    29.97F HX  90
RIFLE, CO      CLOUDY    88  25  10 N12G22    30.06F
MONTROSE, CO   SUNNY     90  25   9 N7        30.07F
CORTEZ, CO     SUNNY     91  24   9 W10       30.12F
COLORADO CITY    N/A     97  25   7 SW21G31   30.08F HX  90
PAGE, AZ       MOSUNNY  102  26   7 SW10G16   29.94F HX  95
GRAND CANYON   SUNNY     89  21   8 SW17G29   30.23F
KINGMAN, AZ    SUNNY    102  29   7 SW25G35   29.98F HX  95
FLAGSTAFF, AZ  MOSUNNY   85  22  10 SW20G25   30.26F

$$

REGIONAL REPORTS    NEVADA/IDAHO/WYOMING

CITY           SKY/WX    TMP DP  RH WIND       PRES   REMARKS
LAS VEGAS, NV  SUNNY    107  -5   1 SW20G30   29.79F HX  97
ELY, NY        SUNNY     92  33  12 S18G28    30.05F
ELKO, NV       PTSUNNY   92  31  11 W12G21    29.93F
POCATELLO, ID  CLOUDY    90  51  26 VRB5      29.90F
BURLEY, ID     TSTM      72  53  51 N12G30    29.91R
FORT BRIDGER,    N/A     80  36  20 NE5       30.22S
EVANSTON, WY   SUNNY     83  32  16 W15       30.18F
ROCK SPRINGS,  SUNNY     82  25  12 SW17      30.15F
KEMMERER, WY     N/A     81  28  15 W9        30.20F

$$




USA.gov is the U.S. government's official web portal to all federal, state and local government web resources and services.